This is the latest recevied weather packets stored in our database for station/object K5GHS-1. If no packets are shown the sender has not sent any weather packets the latest 10 day(s).
| Time | Temp. | Humidity | Pressure | Rain* | Wind** | Luminosity | Snow |
|---|---|---|---|---|---|---|---|
| 1778245302 | 15.56° C | 97% | 1012.8 hPa | 0 mm | - | 114 W/m² | - |
| 1778244998 | 15.56° C | 97% | 1012.8 hPa | 0 mm | - | 44 W/m² | - |
| 1778244695 | 15.56° C | 97% | 1012.8 hPa | 0 mm | - | 36 W/m² | - |
| 1778244393 | 15.56° C | 97% | 1012.8 hPa | 0 mm | - | 22 W/m² | - |
| 1778244090 | 15.56° C | 97% | 1013.6 hPa | 0 mm | - | 5 W/m² | - |
| 1778243788 | 15.56° C | 97% | 1013.4 hPa | 0 mm | - | 7 W/m² | - |
| 1778243485 | 15.56° C | 97% | 1013.1 hPa | 0 mm | - | 6 W/m² | - |
| 1778243181 | 15.56° C | 97% | 1013.3 hPa | 0 mm | - | 5 W/m² | - |
| 1778242878 | 15.56° C | 97% | 1013.1 hPa | 0 mm | - | 2 W/m² | - |
| 1778242577 | 15° C | 97% | 1013.1 hPa | 0 mm | - | 2 W/m² | - |
| 1778242274 | 15.56° C | 96% | 1013 hPa | 0 mm | - | 2 W/m² | - |
| 1778241971 | 15.56° C | 96% | 1012.8 hPa | 0 mm | - | 3 W/m² | - |
| 1778241670 | 15.56° C | 96% | 1013 hPa | 1.78 mm | - | 7 W/m² | - |
| 1778241367 | 15.56° C | 96% | 1013.1 hPa | 1.78 mm | - | 2 W/m² | - |
| 1778241063 | 15° C | 96% | 1013.2 hPa | 0 mm | - | 0 W/m² | - |
| 1778240761 | 15° C | 96% | 1012.8 hPa | 1.27 mm | - | 0 W/m² | - |
| 1778240456 | 15° C | 96% | 1012.8 hPa | 10.67 mm | - | 0 W/m² | - |
| 1778240154 | 15° C | 96% | 1012.3 hPa | 36.58 mm | - | 0 W/m² | - |
| 1778239852 | 15.56° C | 95% | 1012.8 hPa | 27.69 mm | - | 0 W/m² | - |
| 1778239548 | 15° C | 95% | 1012.7 hPa | 1.78 mm | - | 0 W/m² | - |
| 1778239245 | 15° C | 95% | 1012.1 hPa | 0 mm | - | 0 W/m² | - |
| 1778238942 | 15° C | 95% | 1012.7 hPa | 1.78 mm | - | 0 W/m² | - |
| 1778238639 | 15.56° C | 94% | 1012.4 hPa | 4.83 mm | - | 0 W/m² | - |
| 1778238337 | 15.56° C | 94% | 1012.7 hPa | 11.94 mm | - | 0 W/m² | - |
| 1778238033 | 15.56° C | 94% | 1013 hPa | 13.72 mm | - | 0 W/m² | - |
* Rain latest hour (hover to see other rain measurements)
** Current wind speed in m/s (hover to see current wind gust speed)